Station Historical Data
Daily Summary for December 07, 2017 Units:  Both    English   Metric
Next Day »
Daily Weekly Monthly Yearly Custom
  High: Low: Average:
Temperature: 63.8 °F /  17.7 °C 44.9 °F /  7.2 °C 53.8 °F /  12.1 °C
Dew Point: 41.4 °F /  5.2 °C 16.2 °F /  -8.8 °C 25.4 °F /  -3.7 °C
Humidity: 51% 21% 34%
Wind Speed: 23.0mph /  37km/h - 2.2mph /  3.5km/h
Wind Gust: 31.0mph /  49.9km/h - -
Wind- - ESE
Pressure: 30.51 in /  1033.1 hPa 30.41 in /  1029.7 hPa -
Precipitation: 0.00 in /  0 mm    
Historical Graphs
 
 
Tabular Data for December 07, 2017
Time Temperature Dew Point Pressure Wind Wind Speed Wind Gust Humidity Rainfall Rate (Hourly) solar Conditions
00:00 51.7 °F /  10.9 °C 22.1 °F /  -5.5 °C 30.41in /  1029.7hPa Calm   6.0mph /  9.7km/h 31% 0.00in /  0mm 0.00 W/m2
00:29 51.1 °F /  10.6 °C 23.0 °F /  -5 °C 30.41in /  1029.7hPa East 2.0mph /  3.2km/h 11.0mph /  17.7km/h 33% 0.00in /  0mm 0.00 W/m2
00:34 51.0 °F /  10.6 °C 22.2 °F /  -5.4 °C 30.41in /  1029.7hPa ESE 1.0mph /  1.6km/h 15.0mph /  24.1km/h 32% 0.00in /  0mm 0.00 W/m2
00:39 50.9 °F /  10.5 °C 22.8 °F /  -5.1 °C 30.41in /  1029.7hPa ESE 4.0mph /  6.4km/h 13.0mph /  20.9km/h 33% 0.00in /  0mm 0.00 W/m2
00:44 50.9 °F /  10.5 °C 22.1 °F /  -5.5 °C 30.41in /  1029.7hPa Calm   12.0mph /  19.3km/h 32% 0.00in /  0mm 0.00 W/m2
00:49 50.8 °F /  10.4 °C 20.5 °F /  -6.4 °C 30.41in /  1029.7hPa ESE 5.0mph /  8km/h 11.0mph /  17.7km/h 30% 0.00in /  0mm 0.00 W/m2
00:54 50.9 °F /  10.5 °C 20.6 °F /  -6.3 °C 30.41in /  1029.7hPa East 7.0mph /  11.3km/h 9.0mph /  14.5km/h 30% 0.00in /  0mm 0.00 W/m2
00:59 51.0 °F /  10.6 °C 21.5 °F /  -5.8 °C 30.41in /  1029.7hPa ESE 1.0mph /  1.6km/h 8.0mph /  12.9km/h 31% 0.00in /  0mm 0.00 W/m2
01:04 51.1 °F /  10.6 °C 21.5 °F /  -5.8 °C 30.41in /  1029.7hPa ESE 5.0mph /  8km/h 9.0mph /  14.5km/h 31% 0.00in /  0mm 0.00 W/m2
01:09 51.1 °F /  10.6 °C 20.8 °F /  -6.2 °C 30.41in /  1029.7hPa ESE 8.0mph /  12.9km/h 9.0mph /  14.5km/h 30% 0.00in /  0mm 0.00 W/m2
01:14 51.2 °F /  10.7 °C 20.0 °F /  -6.7 °C 30.41in /  1029.7hPa Calm   11.0mph /  17.7km/h 29% 0.00in /  0mm 0.00 W/m2
01:16 51.2 °F /  10.7 °C 20.9 °F /  -6.2 °C 30.41in /  1029.7hPa East 1.0mph /  1.6km/h 5.0mph /  8km/h 30% 0.00in /  0mm 0.00 W/m2
01:21 51.4 °F /  10.8 °C 21.0 °F /  -6.1 °C 30.41in /  1029.7hPa East 1.0mph /  1.6km/h 7.0mph /  11.3km/h 30% 0.00in /  0mm 0.00 W/m2
01:26 51.5 °F /  10.8 °C 18.6 °F /  -7.4 °C 30.41in /  1029.7hPa ESE 5.0mph /  8km/h 9.0mph /  14.5km/h 27% 0.00in /  0mm 0.00 W/m2
01:31 51.7 °F /  10.9 °C 20.5 °F /  -6.4 °C 30.41in /  1029.7hPa ESE 5.0mph /  8km/h 8.0mph /  12.9km/h 29% 0.00in /  0mm 0.00 W/m2
01:37 51.8 °F /  11 °C 18.9 °F /  -7.3 °C 30.41in /  1029.7hPa Calm   4.0mph /  6.4km/h 27% 0.00in /  0mm 0.00 W/m2
01:42 51.9 °F /  11.1 °C 19.0 °F /  -7.2 °C 30.42in /  1030hPa Calm   2.0mph /  3.2km/h 27% 0.00in /  0mm 0.00 W/m2
01:47 51.8 °F /  11 °C 21.4 °F /  -5.9 °C 30.42in /  1030hPa ESE 2.0mph /  3.2km/h 2.0mph /  3.2km/h 30% 0.00in /  0mm 0.00 W/m2
01:52 51.7 °F /  10.9 °C 22.1 °F /  -5.5 °C 30.42in /  1030hPa Calm   2.0mph /  3.2km/h 31% 0.00in /  0mm 0.00 W/m2
01:57 51.5 °F /  10.8 °C 21.1 °F /  -6.1 °C 30.43in /  1030.4hPa ESE 1.0mph /  1.6km/h 2.0mph /  3.2km/h 30% 0.00in /  0mm 0.00 W/m2
02:02 51.2 °F /  10.7 °C 20.0 °F /  -6.7 °C 30.43in /  1030.4hPa Calm   2.0mph /  3.2km/h 29% 0.00in /  0mm 0.00 W/m2
02:07 50.9 °F /  10.5 °C 20.6 °F /  -6.3 °C 30.44in /  1030.7hPa Calm   1.0mph /  1.6km/h 30% 0.00in /  0mm 0.00 W/m2
02:12 50.5 °F /  10.3 °C 20.2 °F /  -6.6 °C 30.44in /  1030.7hPa Calm   1.0mph /  1.6km/h 30% 0.00in /  0mm 0.00 W/m2
02:17 49.9 °F /  9.9 °C 21.2 °F /  -6 °C 30.44in /  1030.7hPa Calm     32% 0.00in /  0mm 0.00 W/m2
02:22 49.5 °F /  9.7 °C 21.6 °F /  -5.8 °C 30.44in /  1030.7hPa Calm     33% 0.00in /  0mm 0.00 W/m2
02:27 49.0 °F /  9.4 °C 21.9 °F /  -5.6 °C 30.44in /  1030.7hPa Calm   1.0mph /  1.6km/h 34% 0.00in /  0mm 0.00 W/m2
02:32 48.8 °F /  9.3 °C 21.7 °F /  -5.7 °C 30.44in /  1030.7hPa Calm     34% 0.00in /  0mm 0.00 W/m2
02:37 48.6 °F /  9.2 °C 21.5 °F /  -5.8 °C 30.44in /  1030.7hPa Calm   1.0mph /  1.6km/h 34% 0.00in /  0mm 0.00 W/m2
02:42 48.4 °F /  9.1 °C 21.3 °F /  -5.9 °C 30.45in /  1031hPa Calm     34% 0.00in /  0mm 0.00 W/m2
02:44 48.3 °F /  9.1 °C 21.2 °F /  -6 °C 30.45in /  1031hPa SE 1.0mph /  1.6km/h 4.0mph /  6.4km/h 34% 0.00in /  0mm 0.00 W/m2
02:49 48.1 °F /  8.9 °C 20.4 °F /  -6.4 °C 30.45in /  1031hPa Calm   2.0mph /  3.2km/h 33% 0.00in /  0mm 0.00 W/m2
02:54 47.8 °F /  8.8 °C 22.2 °F /  -5.4 °C 30.45in /  1031hPa Calm   5.0mph /  8km/h 36% 0.00in /  0mm 0.00 W/m2
02:59 47.4 °F /  8.6 °C 22.5 °F /  -5.3 °C 30.46in /  1031.4hPa Calm   4.0mph /  6.4km/h 37% 0.00in /  0mm 0.00 W/m2
03:04 47.1 °F /  8.4 °C 22.2 °F /  -5.4 °C 30.46in /  1031.4hPa Calm   2.0mph /  3.2km/h 37% 0.00in /  0mm 0.00 W/m2
03:09 46.8 °F /  8.2 °C 21.9 °F /  -5.6 °C 30.46in /  1031.4hPa Calm   2.0mph /  3.2km/h 37% 0.00in /  0mm 0.00 W/m2
03:14 46.4 °F /  8 °C 21.6 °F /  -5.8 °C 30.46in /  1031.4hPa Calm     37% 0.00in /  0mm 0.00 W/m2
03:16 46.3 °F /  7.9 °C 20.8 °F /  -6.2 °C 30.46in /  1031.4hPa Calm     36% 0.00in /  0mm 0.00 W/m2
03:21 46.1 °F /  7.8 °C 22.5 °F /  -5.3 °C 30.46in /  1031.4hPa Calm     39% 0.00in /  0mm 0.00 W/m2
03:26 45.8 °F /  7.7 °C 22.3 °F /  -5.4 °C 30.46in /  1031.4hPa ESE 1.0mph /  1.6km/h 2.0mph /  3.2km/h 39% 0.00in /  0mm 0.00 W/m2
03:31 45.6 °F /  7.6 °C 22.7 °F /  -5.2 °C 30.46in /  1031.4hPa ESE 1.0mph /  1.6km/h 1.0mph /  1.6km/h 40% 0.00in /  0mm 0.00 W/m2
03:36 45.5 °F /  7.5 °C 22.6 °F /  -5.2 °C 30.46in /  1031.4hPa Calm   4.0mph /  6.4km/h 40% 0.00in /  0mm 0.00 W/m2
03:41 45.4 °F /  7.4 °C 23.1 °F /  -4.9 °C 30.46in /  1031.4hPa Calm   1.0mph /  1.6km/h 41% 0.00in /  0mm 0.00 W/m2
03:46 45.3 °F /  7.4 °C 23.6 °F /  -4.7 °C 30.46in /  1031.4hPa Calm     42% 0.00in /  0mm 0.00 W/m2
03:51 45.1 °F /  7.3 °C 22.2 °F /  -5.4 °C 30.46in /  1031.4hPa Calm   4.0mph /  6.4km/h 40% 0.00in /  0mm 0.00 W/m2
03:56 45.0 °F /  7.2 °C 22.1 °F /  -5.5 °C 30.46in /  1031.4hPa Calm   1.0mph /  1.6km/h 40% 0.00in /  0mm 0.00 W/m2
04:01 44.9 °F /  7.2 °C 22.6 °F /  -5.2 °C 30.46in /  1031.4hPa Calm   2.0mph /  3.2km/h 41% 0.00in /  0mm 0.00 W/m2
04:06 44.9 °F /  7.2 °C 22.1 °F /  -5.5 °C 30.46in /  1031.4hPa Calm   2.0mph /  3.2km/h 40% 0.00in /  0mm 0.00 W/m2
04:11 45.0 °F /  7.2 °C 22.1 °F /  -5.5 °C 30.47in /  1031.7hPa Calm     40% 0.00in /  0mm 0.00 W/m2
04:16 45.1 °F /  7.3 °C 22.2 °F /  -5.4 °C 30.47in /  1031.7hPa Calm     40% 0.00in /  0mm 0.00 W/m2
04:21 45.2 °F /  7.3 °C 21.7 °F /  -5.7 °C 30.47in /  1031.7hPa Calm   1.0mph /  1.6km/h 39% 0.00in /  0mm 0.00 W/m2
04:26 45.3 °F /  7.4 °C 22.4 °F /  -5.3 °C 30.47in /  1031.7hPa Calm   1.0mph /  1.6km/h 40% 0.00in /  0mm 0.00 W/m2
04:31 45.4 °F /  7.4 °C 22.5 °F /  -5.3 °C 30.47in /  1031.7hPa Calm   4.0mph /  6.4km/h 40% 0.00in /  0mm 0.00 W/m2
04:36 45.5 °F /  7.5 °C 20.8 °F /  -6.2 °C 30.47in /  1031.7hPa ESE 6.0mph /  9.7km/h 6.0mph /  9.7km/h 37% 0.00in /  0mm 0.00 W/m2
04:51 45.5 °F /  7.5 °C 22.6 °F /  -5.2 °C 30.48in /  1032.1hPa Calm   6.0mph /  9.7km/h 40% 0.00in /  0mm 0.00 W/m2
05:01 45.3 °F /  7.4 °C 21.8 °F /  -5.7 °C 30.48in /  1032.1hPa Calm   2.0mph /  3.2km/h 39% 0.00in /  0mm 0.00 W/m2
05:06 45.3 °F /  7.4 °C 22.4 °F /  -5.3 °C 30.48in /  1032.1hPa ESE 2.0mph /  3.2km/h 4.0mph /  6.4km/h 40% 0.00in /  0mm 0.00 W/m2
05:11 45.2 °F /  7.3 °C 22.3 °F /  -5.4 °C 30.48in /  1032.1hPa East 5.0mph /  8km/h 6.0mph /  9.7km/h 40% 0.00in /  0mm 0.00 W/m2
05:16 45.2 °F /  7.3 °C 22.3 °F /  -5.4 °C 30.49in /  1032.4hPa Calm   5.0mph /  8km/h 40% 0.00in /  0mm 0.00 W/m2
05:21 45.2 °F /  7.3 °C 21.1 °F /  -6.1 °C 30.49in /  1032.4hPa East 2.0mph /  3.2km/h 4.0mph /  6.4km/h 38% 0.00in /  0mm 0.00 W/m2
05:26 45.2 °F /  7.3 °C 21.7 °F /  -5.7 °C 30.49in /  1032.4hPa Calm   4.0mph /  6.4km/h 39% 0.00in /  0mm 0.00 W/m2
05:31 45.2 °F /  7.3 °C 20.5 °F /  -6.4 °C 30.49in /  1032.4hPa ESE 5.0mph /  8km/h 5.0mph /  8km/h 37% 0.00in /  0mm 0.00 W/m2
05:36 45.4 °F /  7.4 °C 21.9 °F /  -5.6 °C 30.49in /  1032.4hPa East 1.0mph /  1.6km/h 7.0mph /  11.3km/h 39% 0.00in /  0mm 0.00 W/m2
05:41 45.4 °F /  7.4 °C 21.9 °F /  -5.6 °C 30.49in /  1032.4hPa Calm   6.0mph /  9.7km/h 39% 0.00in /  0mm 0.00 W/m2
05:46 45.5 °F /  7.5 °C 21.4 °F /  -5.9 °C 30.49in /  1032.4hPa East 2.0mph /  3.2km/h 5.0mph /  8km/h 38% 0.00in /  0mm 0.00 W/m2
05:51 45.6 °F /  7.6 °C 21.5 °F /  -5.8 °C 30.49in /  1032.4hPa ESE 5.0mph /  8km/h 5.0mph /  8km/h 38% 0.00in /  0mm 0.00 W/m2
05:56 45.8 °F /  7.7 °C 22.3 °F /  -5.4 °C 30.49in /  1032.4hPa ESE 5.0mph /  8km/h 6.0mph /  9.7km/h 39% 0.00in /  0mm 0.00 W/m2
05:59 45.9 °F /  7.7 °C 21.7 °F /  -5.7 °C 30.49in /  1032.4hPa Calm   6.0mph /  9.7km/h 38% 0.00in /  0mm 0.00 W/m2
06:09 46.2 °F /  7.9 °C 22.6 °F /  -5.2 °C 30.50in /  1032.7hPa ESE 1.0mph /  1.6km/h 7.0mph /  11.3km/h 39% 0.00in /  0mm 0.00 W/m2
06:14 46.2 °F /  7.9 °C 23.2 °F /  -4.9 °C 30.50in /  1032.7hPa East 7.0mph /  11.3km/h 7.0mph /  11.3km/h 40% 0.00in /  0mm 0.00 W/m2
06:24 46.1 °F /  7.8 °C 22.5 °F /  -5.3 °C 30.50in /  1032.7hPa ESE 5.0mph /  8km/h 7.0mph /  11.3km/h 39% 0.00in /  0mm 0.00 W/m2
06:34 46.1 °F /  7.8 °C 21.9 °F /  -5.6 °C 30.50in /  1032.7hPa Calm   7.0mph /  11.3km/h 38% 0.00in /  0mm 0.00 W/m2
06:39 46.1 °F /  7.8 °C 21.3 °F /  -5.9 °C 30.50in /  1032.7hPa ESE 1.0mph /  1.6km/h 7.0mph /  11.3km/h 37% 0.00in /  0mm 0.00 W/m2
06:44 46.1 °F /  7.8 °C 21.3 °F /  -5.9 °C 30.50in /  1032.7hPa East 5.0mph /  8km/h 8.0mph /  12.9km/h 37% 0.00in /  0mm 0.00 W/m2
06:49 46.0 °F /  7.8 °C 21.8 °F /  -5.7 °C 30.50in /  1032.7hPa Calm   7.0mph /  11.3km/h 38% 0.00in /  0mm 0.00 W/m2
06:59 45.8 °F /  7.7 °C 20.4 °F /  -6.4 °C 30.50in /  1032.7hPa East 7.0mph /  11.3km/h 7.0mph /  11.3km/h 36% 0.00in /  0mm 0.00 W/m2
07:05 46.0 °F /  7.8 °C 21.2 °F /  -6 °C 30.50in /  1032.7hPa East 8.0mph /  12.9km/h 12.0mph /  19.3km/h 37% 0.00in /  0mm 5.00 W/m2
07:10 46.0 °F /  7.8 °C 20.6 °F /  -6.3 °C 30.50in /  1032.7hPa Calm   8.0mph /  12.9km/h 36% 0.00in /  0mm 7.00 W/m2
07:15 46.2 °F /  7.9 °C 20.7 °F /  -6.3 °C 30.50in /  1032.7hPa East 6.0mph /  9.7km/h 8.0mph /  12.9km/h 36% 0.00in /  0mm 9.00 W/m2
07:20 46.3 °F /  7.9 °C 21.5 °F /  -5.8 °C 30.50in /  1032.7hPa East 2.0mph /  3.2km/h 12.0mph /  19.3km/h 37% 0.00in /  0mm 11.00 W/m2
07:25 46.5 °F /  8.1 °C 21.0 °F /  -6.1 °C 30.50in /  1032.7hPa East 5.0mph /  8km/h 11.0mph /  17.7km/h 36% 0.00in /  0mm 12.00 W/m2
07:30 46.7 °F /  8.2 °C 19.8 °F /  -6.8 °C 30.50in /  1032.7hPa Calm   12.0mph /  19.3km/h 34% 0.00in /  0mm 16.00 W/m2
07:46 47.1 °F /  8.4 °C 22.2 °F /  -5.4 °C 30.50in /  1032.7hPa Calm   7.0mph /  11.3km/h 37% 0.00in /  0mm 26.00 W/m2
07:51 47.1 °F /  8.4 °C 22.2 °F /  -5.4 °C 30.50in /  1032.7hPa ESE 4.0mph /  6.4km/h 7.0mph /  11.3km/h 37% 0.00in /  0mm 62.00 W/m2
08:01 47.1 °F /  8.4 °C 20.9 °F /  -6.2 °C 30.50in /  1032.7hPa East 1.0mph /  1.6km/h 8.0mph /  12.9km/h 35% 0.00in /  0mm 93.00 W/m2
08:06 47.2 °F /  8.4 °C 21.6 °F /  -5.8 °C 30.50in /  1032.7hPa East 1.0mph /  1.6km/h 14.0mph /  22.5km/h 36% 0.00in /  0mm 104.00 W/m2
08:11 47.4 °F /  8.6 °C 21.8 °F /  -5.7 °C 30.50in /  1032.7hPa ESE 5.0mph /  8km/h 7.0mph /  11.3km/h 36% 0.00in /  0mm 125.00 W/m2
08:16 47.6 °F /  8.7 °C 20.6 °F /  -6.3 °C 30.50in /  1032.7hPa East 7.0mph /  11.3km/h 7.0mph /  11.3km/h 34% 0.00in /  0mm 139.00 W/m2
08:21 47.8 °F /  8.8 °C 22.8 °F /  -5.1 °C 30.50in /  1032.7hPa East 5.0mph /  8km/h 11.0mph /  17.7km/h 37% 0.00in /  0mm 155.00 W/m2
08:26 48.0 °F /  8.9 °C 23.0 °F /  -5 °C 30.50in /  1032.7hPa East 7.0mph /  11.3km/h 11.0mph /  17.7km/h 37% 0.00in /  0mm 174.00 W/m2
08:31 48.2 °F /  9 °C 23.2 °F /  -4.9 °C 30.51in /  1033.1hPa ESE 5.0mph /  8km/h 19.0mph /  30.6km/h 37% 0.00in /  0mm 185.00 W/m2
08:36 48.5 °F /  9.2 °C 22.8 °F /  -5.1 °C 30.50in /  1032.7hPa East 1.0mph /  1.6km/h 13.0mph /  20.9km/h 36% 0.00in /  0mm 209.00 W/m2
08:47 48.7 °F /  9.3 °C 23.6 °F /  -4.7 °C 30.50in /  1032.7hPa East 1.0mph /  1.6km/h 10.0mph /  16.1km/h 37% 0.00in /  0mm 248.00 W/m2
08:52 49.0 °F /  9.4 °C 23.9 °F /  -4.5 °C 30.50in /  1032.7hPa East 1.0mph /  1.6km/h 10.0mph /  16.1km/h 37% 0.00in /  0mm 264.00 W/m2
08:57 49.3 °F /  9.6 °C 23.5 °F /  -4.7 °C 30.50in /  1032.7hPa East 12.0mph /  19.3km/h 12.0mph /  19.3km/h 36% 0.00in /  0mm 281.00 W/m2
09:07 50.1 °F /  10.1 °C 23.5 °F /  -4.7 °C 30.51in /  1033.1hPa ESE 11.0mph /  17.7km/h 11.0mph /  17.7km/h 35% 0.00in /  0mm 311.00 W/m2
09:12 50.5 °F /  10.3 °C 22.5 °F /  -5.3 °C 30.51in /  1033.1hPa East 5.0mph /  8km/h 14.0mph /  22.5km/h 33% 0.00in /  0mm 325.00 W/m2
09:27 51.6 °F /  10.9 °C 24.2 °F /  -4.3 °C 30.50in /  1032.7hPa ESE 5.0mph /  8km/h 11.0mph /  17.7km/h 34% 0.00in /  0mm 359.00 W/m2
09:32 52.0 °F /  11.1 °C 24.5 °F /  -4.2 °C 30.51in /  1033.1hPa East 4.0mph /  6.4km/h 12.0mph /  19.3km/h 34% 0.00in /  0mm 374.00 W/m2
09:37 52.4 °F /  11.3 °C 24.9 °F /  -3.9 °C 30.51in /  1033.1hPa East 2.0mph /  3.2km/h 9.0mph /  14.5km/h 34% 0.00in /  0mm 383.00 W/m2
09:47 53.1 °F /  11.7 °C 23.3 °F /  -4.8 °C 30.51in /  1033.1hPa Calm   9.0mph /  14.5km/h 31% 0.00in /  0mm 403.00 W/m2
09:52 53.4 °F /  11.9 °C 24.3 °F /  -4.3 °C 30.51in /  1033.1hPa Calm   6.0mph /  9.7km/h 32% 0.00in /  0mm 410.00 W/m2
09:57 53.7 °F /  12.1 °C 25.3 °F /  -3.7 °C 30.51in /  1033.1hPa Calm   5.0mph /  8km/h 33% 0.00in /  0mm 422.00 W/m2
10:12 54.9 °F /  12.7 °C 25.6 °F /  -3.6 °C 30.50in /  1032.7hPa ESE 2.0mph /  3.2km/h 4.0mph /  6.4km/h 32% 0.00in /  0mm 446.00 W/m2
10:17 55.5 °F /  13.1 °C 26.1 °F /  -3.3 °C 30.50in /  1032.7hPa SE 2.0mph /  3.2km/h 6.0mph /  9.7km/h 32% 0.00in /  0mm 455.00 W/m2
10:22 56.0 °F /  13.3 °C 27.3 °F /  -2.6 °C 30.50in /  1032.7hPa ESE 6.0mph /  9.7km/h 6.0mph /  9.7km/h 33% 0.00in /  0mm 462.00 W/m2
10:27 56.4 °F /  13.6 °C 26.9 °F /  -2.8 °C 30.50in /  1032.7hPa Calm   1.0mph /  1.6km/h 32% 0.00in /  0mm 469.00 W/m2
10:32 56.7 °F /  13.7 °C 29.4 °F /  -1.4 °C 30.50in /  1032.7hPa Calm     35% 0.00in /  0mm 476.00 W/m2
10:37 56.9 °F /  13.8 °C 28.8 °F /  -1.8 °C 30.50in /  1032.7hPa Calm     34% 0.00in /  0mm 482.00 W/m2
10:42 57.1 °F /  13.9 °C 29.7 °F /  -1.3 °C 30.49in /  1032.4hPa East 2.0mph /  3.2km/h 6.0mph /  9.7km/h 35% 0.00in /  0mm 489.00 W/m2
10:47 57.4 °F /  14.1 °C 30.7 °F /  -0.7 °C 30.49in /  1032.4hPa Calm     36% 0.00in /  0mm 492.00 W/m2
10:52 57.7 °F /  14.3 °C 31.6 °F /  -0.2 °C 30.49in /  1032.4hPa Calm   4.0mph /  6.4km/h 37% 0.00in /  0mm 497.00 W/m2
10:57 58.0 °F /  14.4 °C 31.2 °F /  -0.4 °C 30.49in /  1032.4hPa Calm     36% 0.00in /  0mm 504.00 W/m2
11:02 58.3 °F /  14.6 °C 33.5 °F /  0.8 °C 30.48in /  1032.1hPa East 5.0mph /  8km/h 7.0mph /  11.3km/h 39% 0.00in /  0mm 508.00 W/m2
11:07 58.7 °F /  14.8 °C 31.8 °F /  -0.1 °C 30.48in /  1032.1hPa East 1.0mph /  1.6km/h 5.0mph /  8km/h 36% 0.00in /  0mm 512.00 W/m2
11:17 59.5 °F /  15.3 °C 31.9 °F /  -0.1 °C 30.48in /  1032.1hPa Calm   1.0mph /  1.6km/h 35% 0.00in /  0mm 517.00 W/m2
11:22 59.8 °F /  15.4 °C 29.9 °F /  -1.2 °C 30.47in /  1031.7hPa Calm     32% 0.00in /  0mm 519.00 W/m2
11:32 60.3 °F /  15.7 °C 33.3 °F /  0.7 °C 30.47in /  1031.7hPa Calm     36% 0.00in /  0mm 522.00 W/m2
11:37 60.9 °F /  16.1 °C 34.5 °F /  1.4 °C 30.47in /  1031.7hPa Calm   1.0mph /  1.6km/h 37% 0.00in /  0mm 526.00 W/m2
11:47 61.5 °F /  16.4 °C 34.3 °F /  1.3 °C 30.47in /  1031.7hPa ENE 2.0mph /  3.2km/h 2.0mph /  3.2km/h 36% 0.00in /  0mm 526.00 W/m2
11:52 62.1 °F /  16.7 °C 34.2 °F /  1.2 °C 30.46in /  1031.4hPa Calm     35% 0.00in /  0mm 524.00 W/m2
11:57 62.5 °F /  16.9 °C 33.0 °F /  0.6 °C 30.46in /  1031.4hPa Calm     33% 0.00in /  0mm 526.00 W/m2
12:02 62.8 °F /  17.1 °C 30.1 °F /  -1.1 °C 30.46in /  1031.4hPa NNE 2.0mph /  3.2km/h 3.0mph /  4.8km/h 29% 0.00in /  0mm 524.00 W/m2
12:07 63.0 °F /  17.2 °C 34.9 °F /  1.6 °C 30.46in /  1031.4hPa North 2.0mph /  3.2km/h 3.0mph /  4.8km/h 35% 0.00in /  0mm 522.00 W/m2
12:17 63.1 °F /  17.3 °C 30.4 °F /  -0.9 °C 30.45in /  1031hPa North 2.0mph /  3.2km/h 2.0mph /  3.2km/h 29% 0.00in /  0mm 519.00 W/m2
12:22 63.3 °F /  17.4 °C 33.7 °F /  0.9 °C 30.45in /  1031hPa North 1.0mph /  1.6km/h 2.0mph /  3.2km/h 33% 0.00in /  0mm 517.00 W/m2
12:27 63.3 °F /  17.4 °C 25.9 °F /  -3.4 °C 30.45in /  1031hPa Calm     24% 0.00in /  0mm 513.00 W/m2
12:32 63.3 °F /  17.4 °C 27.9 °F /  -2.3 °C 30.45in /  1031hPa Calm   3.0mph /  4.8km/h 26% 0.00in /  0mm 512.00 W/m2
12:37 63.3 °F /  17.4 °C 22.7 °F /  -5.2 °C 30.44in /  1030.7hPa Calm   4.0mph /  6.4km/h 21% 0.00in /  0mm 508.00 W/m2
12:42 63.4 °F /  17.4 °C 23.9 °F /  -4.5 °C 30.44in /  1030.7hPa Calm   2.0mph /  3.2km/h 22% 0.00in /  0mm 503.00 W/m2
12:47 63.5 °F /  17.5 °C 25.1 °F /  -3.8 °C 30.44in /  1030.7hPa Calm   3.0mph /  4.8km/h 23% 0.00in /  0mm 499.00 W/m2
12:58 63.6 °F /  17.6 °C 24.1 °F /  -4.4 °C 30.44in /  1030.7hPa Calm   4.0mph /  6.4km/h 22% 0.00in /  0mm 489.00 W/m2
13:03 63.8 °F /  17.7 °C 27.3 °F /  -2.6 °C 30.43in /  1030.4hPa Calm   3.0mph /  4.8km/h 25% 0.00in /  0mm 483.00 W/m2
13:08 63.8 °F /  17.7 °C 30.1 °F /  -1.1 °C 30.43in /  1030.4hPa Calm   3.0mph /  4.8km/h 28% 0.00in /  0mm 476.00 W/m2
13:13 63.8 °F /  17.7 °C 34.9 °F /  1.6 °C 30.43in /  1030.4hPa NNW 2.0mph /  3.2km/h 5.0mph /  8km/h 34% 0.00in /  0mm 471.00 W/m2
13:18 63.6 °F /  17.6 °C 33.2 °F /  0.7 °C 30.43in /  1030.4hPa Calm     32% 0.00in /  0mm 464.00 W/m2
13:23 63.5 °F /  17.5 °C 33.9 °F /  1.1 °C 30.43in /  1030.4hPa Calm     33% 0.00in /  0mm 457.00 W/m2
13:28 63.4 °F /  17.4 °C 34.6 °F /  1.4 °C 30.43in /  1030.4hPa Calm   2.0mph /  3.2km/h 34% 0.00in /  0mm 450.00 W/m2
13:33 63.2 °F /  17.3 °C 32.9 °F /  0.5 °C 30.43in /  1030.4hPa Calm   3.0mph /  4.8km/h 32% 0.00in /  0mm 441.00 W/m2
13:38 63.3 °F /  17.4 °C 34.5 °F /  1.4 °C 30.43in /  1030.4hPa Calm   1.0mph /  1.6km/h 34% 0.00in /  0mm 432.00 W/m2
13:43 63.4 °F /  17.4 °C 36.7 °F /  2.6 °C 30.42in /  1030hPa Calm   2.0mph /  3.2km/h 37% 0.00in /  0mm 424.00 W/m2
13:45 63.4 °F /  17.4 °C 38.0 °F /  3.3 °C 30.42in /  1030hPa Calm   2.0mph /  3.2km/h 39% 0.00in /  0mm 418.00 W/m2
13:50 63.1 °F /  17.3 °C 37.1 °F /  2.8 °C 30.42in /  1030hPa Calm   3.0mph /  4.8km/h 38% 0.00in /  0mm 411.00 W/m2
13:55 63.0 °F /  17.2 °C 37.7 °F /  3.2 °C 30.42in /  1030hPa NW 3.0mph /  4.8km/h 5.0mph /  8km/h 39% 0.00in /  0mm 401.00 W/m2
14:00 62.7 °F /  17.1 °C 36.8 °F /  2.7 °C 30.42in /  1030hPa Calm   2.0mph /  3.2km/h 38% 0.00in /  0mm 392.00 W/m2
14:10 62.6 °F /  17 °C 36.7 °F /  2.6 °C 30.42in /  1030hPa Calm   2.0mph /  3.2km/h 38% 0.00in /  0mm 371.00 W/m2
14:15 62.5 °F /  16.9 °C 36.6 °F /  2.6 °C 30.42in /  1030hPa Calm     38% 0.00in /  0mm 360.00 W/m2
14:20 62.4 °F /  16.9 °C 36.5 °F /  2.5 °C 30.42in /  1030hPa Calm   3.0mph /  4.8km/h 38% 0.00in /  0mm 350.00 W/m2
14:30 62.1 °F /  16.7 °C 36.2 °F /  2.3 °C 30.42in /  1030hPa Calm     38% 0.00in /  0mm 329.00 W/m2
14:35 62.0 °F /  16.7 °C 38.0 °F /  3.3 °C 30.42in /  1030hPa Calm     41% 0.00in /  0mm 316.00 W/m2
14:40 61.8 °F /  16.6 °C 39.1 °F /  3.9 °C 30.42in /  1030hPa Calm     43% 0.00in /  0mm 304.00 W/m2
14:45 61.6 °F /  16.4 °C 39.5 °F /  4.2 °C 30.42in /  1030hPa Calm     44% 0.00in /  0mm 292.00 W/m2
14:50 61.3 °F /  16.3 °C 40.9 °F /  4.9 °C 30.42in /  1030hPa Calm   5.0mph /  8km/h 47% 0.00in /  0mm 279.00 W/m2
15:00 60.6 °F /  15.9 °C 41.4 °F /  5.2 °C 30.42in /  1030hPa Calm     49% 0.00in /  0mm 251.00 W/m2
15:05 60.3 °F /  15.7 °C 40.0 °F /  4.4 °C 30.42in /  1030hPa Calm   4.0mph /  6.4km/h 47% 0.00in /  0mm 237.00 W/m2
15:10 60.1 °F /  15.6 °C 39.3 °F /  4.1 °C 30.42in /  1030hPa Calm   1.0mph /  1.6km/h 46% 0.00in /  0mm 221.00 W/m2
15:21 59.9 °F /  15.5 °C 38.5 °F /  3.6 °C 30.42in /  1030hPa NNW 1.0mph /  1.6km/h 4.0mph /  6.4km/h 45% 0.00in /  0mm 183.00 W/m2
15:26 59.8 °F /  15.4 °C 39.5 °F /  4.2 °C 30.42in /  1030hPa Calm     47% 0.00in /  0mm 165.00 W/m2
15:46 59.4 °F /  15.2 °C 39.7 °F /  4.3 °C 30.42in /  1030hPa Calm   1.0mph /  1.6km/h 48% 0.00in /  0mm 98.00 W/m2
15:51 59.3 °F /  15.2 °C 40.2 °F /  4.6 °C 30.42in /  1030hPa Calm     49% 0.00in /  0mm 83.00 W/m2
15:56 59.1 °F /  15.1 °C 40.5 °F /  4.7 °C 30.42in /  1030hPa Calm   7.0mph /  11.3km/h 50% 0.00in /  0mm 67.00 W/m2
16:06 58.6 °F /  14.8 °C 40.5 °F /  4.7 °C 30.42in /  1030hPa East 4.0mph /  6.4km/h 12.0mph /  19.3km/h 51% 0.00in /  0mm 42.00 W/m2
16:11 58.4 °F /  14.7 °C 40.4 °F /  4.7 °C 30.42in /  1030hPa Calm   11.0mph /  17.7km/h 51% 0.00in /  0mm 30.00 W/m2
16:16 58.2 °F /  14.6 °C 38.1 °F /  3.4 °C 30.42in /  1030hPa East 3.0mph /  4.8km/h 3.0mph /  4.8km/h 47% 0.00in /  0mm 18.00 W/m2
16:21 58.1 °F /  14.5 °C 36.3 °F /  2.4 °C 30.42in /  1030hPa ENE 1.0mph /  1.6km/h 6.0mph /  9.7km/h 44% 0.00in /  0mm 14.00 W/m2
16:26 58.0 °F /  14.4 °C 33.8 °F /  1 °C 30.42in /  1030hPa Calm   4.0mph /  6.4km/h 40% 0.00in /  0mm 11.00 W/m2
16:31 57.8 °F /  14.3 °C 36.0 °F /  2.2 °C 30.42in /  1030hPa East 10.0mph /  16.1km/h 12.0mph /  19.3km/h 44% 0.00in /  0mm 7.00 W/m2
16:36 57.6 °F /  14.2 °C 34.7 °F /  1.5 °C 30.41in /  1029.7hPa Calm   5.0mph /  8km/h 42% 0.00in /  0mm 5.00 W/m2
16:41 57.4 °F /  14.1 °C 34.5 °F /  1.4 °C 30.41in /  1029.7hPa East 9.0mph /  14.5km/h 11.0mph /  17.7km/h 42% 0.00in /  0mm 5.00 W/m2
16:51 57.3 °F /  14.1 °C 31.3 °F /  -0.4 °C 30.41in /  1029.7hPa Calm   13.0mph /  20.9km/h 37% 0.00in /  0mm 0.00 W/m2
16:56 57.3 °F /  14.1 °C 31.3 °F /  -0.4 °C 30.42in /  1030hPa ENE 7.0mph /  11.3km/h 14.0mph /  22.5km/h 37% 0.00in /  0mm 0.00 W/m2
17:01 57.3 °F /  14.1 °C 27.7 °F /  -2.4 °C 30.42in /  1030hPa ESE 8.0mph /  12.9km/h 17.0mph /  27.4km/h 32% 0.00in /  0mm 0.00 W/m2
17:08 57.6 °F /  14.2 °C 28.0 °F /  -2.2 °C 30.42in /  1030hPa East 1.0mph /  1.6km/h 11.0mph /  17.7km/h 32% 0.00in /  0mm 0.00 W/m2
17:18 58.2 °F /  14.6 °C 25.3 °F /  -3.7 °C 30.42in /  1030hPa ENE 12.0mph /  19.3km/h 22.0mph /  35.4km/h 28% 0.00in /  0mm 0.00 W/m2
17:23 58.7 °F /  14.8 °C 24.8 °F /  -4 °C 30.42in /  1030hPa SE 2.0mph /  3.2km/h 28.0mph /  45.1km/h 27% 0.00in /  0mm 0.00 W/m2
17:33 59.3 °F /  15.2 °C 24.4 °F /  -4.2 °C 30.42in /  1030hPa East 2.0mph /  3.2km/h 22.0mph /  35.4km/h 26% 0.00in /  0mm 0.00 W/m2
17:43 59.7 °F /  15.4 °C 22.9 °F /  -5.1 °C 30.42in /  1030hPa ESE 15.0mph /  24.1km/h 31.0mph /  49.9km/h 24% 0.00in /  0mm 0.00 W/m2
17:48 59.8 °F /  15.4 °C 22.0 °F /  -5.6 °C 30.43in /  1030.4hPa East 23.0mph /  37km/h 25.0mph /  40.2km/h 23% 0.00in /  0mm 0.00 W/m2
17:53 59.8 °F /  15.4 °C 24.9 °F /  -3.9 °C 30.43in /  1030.4hPa East 13.0mph /  20.9km/h 26.0mph /  41.8km/h 26% 0.00in /  0mm 0.00 W/m2
17:58 59.7 °F /  15.4 °C 21.9 °F /  -5.6 °C 30.43in /  1030.4hPa East 23.0mph /  37km/h 23.0mph /  37km/h 23% 0.00in /  0mm 0.00 W/m2
18:03 59.8 °F /  15.4 °C 22.0 °F /  -5.6 °C 30.44in /  1030.7hPa ENE 15.0mph /  24.1km/h 25.0mph /  40.2km/h 23% 0.00in /  0mm 0.00 W/m2
18:08 59.7 °F /  15.4 °C 21.9 °F /  -5.6 °C 30.44in /  1030.7hPa ESE 9.0mph /  14.5km/h 23.0mph /  37km/h 23% 0.00in /  0mm 0.00 W/m2
18:13 59.7 °F /  15.4 °C 23.9 °F /  -4.5 °C 30.44in /  1030.7hPa Calm   24.0mph /  38.6km/h 25% 0.00in /  0mm 0.00 W/m2
18:28 59.6 °F /  15.3 °C 21.8 °F /  -5.7 °C 30.44in /  1030.7hPa East 17.0mph /  27.4km/h 24.0mph /  38.6km/h 23% 0.00in /  0mm 0.00 W/m2
18:33 59.5 °F /  15.3 °C 23.7 °F /  -4.6 °C 30.44in /  1030.7hPa ESE 7.0mph /  11.3km/h 22.0mph /  35.4km/h 25% 0.00in /  0mm 0.00 W/m2
18:38 59.3 °F /  15.2 °C 21.5 °F /  -5.8 °C 30.44in /  1030.7hPa Calm   29.0mph /  46.7km/h 23% 0.00in /  0mm 0.00 W/m2
18:43 59.3 °F /  15.2 °C 20.5 °F /  -6.4 °C 30.44in /  1030.7hPa ENE 14.0mph /  22.5km/h 23.0mph /  37km/h 22% 0.00in /  0mm 0.00 W/m2
18:48 59.6 °F /  15.3 °C 21.8 °F /  -5.7 °C 30.44in /  1030.7hPa East 8.0mph /  12.9km/h 23.0mph /  37km/h 23% 0.00in /  0mm 0.00 W/m2
18:53 59.5 °F /  15.3 °C 23.7 °F /  -4.6 °C 30.44in /  1030.7hPa ENE 5.0mph /  8km/h 21.0mph /  33.8km/h 25% 0.00in /  0mm 0.00 W/m2
18:58 59.2 °F /  15.1 °C 21.4 °F /  -5.9 °C 30.44in /  1030.7hPa Calm   8.0mph /  12.9km/h 23% 0.00in /  0mm 0.00 W/m2
19:08 58.8 °F /  14.9 °C 22.1 °F /  -5.5 °C 30.44in /  1030.7hPa East 10.0mph /  16.1km/h 19.0mph /  30.6km/h 24% 0.00in /  0mm 0.00 W/m2
19:13 58.6 °F /  14.8 °C 19.9 °F /  -6.7 °C 30.44in /  1030.7hPa ENE 14.0mph /  22.5km/h 17.0mph /  27.4km/h 22% 0.00in /  0mm 0.00 W/m2
19:18 58.4 °F /  14.7 °C 22.7 °F /  -5.2 °C 30.44in /  1030.7hPa East 1.0mph /  1.6km/h 15.0mph /  24.1km/h 25% 0.00in /  0mm 0.00 W/m2
19:22 58.2 °F /  14.6 °C 22.6 °F /  -5.2 °C 30.44in /  1030.7hPa Calm   7.0mph /  11.3km/h 25% 0.00in /  0mm 0.00 W/m2
19:27 57.9 °F /  14.4 °C 19.3 °F /  -7.1 °C 30.44in /  1030.7hPa Calm   24.0mph /  38.6km/h 22% 0.00in /  0mm 0.00 W/m2
19:32 57.8 °F /  14.3 °C 21.3 °F /  -5.9 °C 30.44in /  1030.7hPa Calm   3.0mph /  4.8km/h 24% 0.00in /  0mm 0.00 W/m2
19:42 57.6 °F /  14.2 °C 20.1 °F /  -6.6 °C 30.44in /  1030.7hPa East 1.0mph /  1.6km/h 12.0mph /  19.3km/h 23% 0.00in /  0mm 0.00 W/m2
19:47 57.6 °F /  14.2 °C 19.1 °F /  -7.2 °C 30.44in /  1030.7hPa East 16.0mph /  25.7km/h 18.0mph /  29km/h 22% 0.00in /  0mm 0.00 W/m2
19:52 57.6 °F /  14.2 °C 20.1 °F /  -6.6 °C 30.45in /  1031hPa ESE 1.0mph /  1.6km/h 16.0mph /  25.7km/h 23% 0.00in /  0mm 0.00 W/m2
19:57 57.5 °F /  14.2 °C 24.7 °F /  -4.1 °C 30.45in /  1031hPa Calm   12.0mph /  19.3km/h 28% 0.00in /  0mm 0.00 W/m2
20:07 56.6 °F /  13.7 °C 25.5 °F /  -3.6 °C 30.45in /  1031hPa Calm   16.0mph /  25.7km/h 30% 0.00in /  0mm 0.00 W/m2
20:12 56.0 °F /  13.3 °C 24.2 °F /  -4.3 °C 30.45in /  1031hPa Calm     29% 0.00in /  0mm 0.00 W/m2
20:22 55.4 °F /  13 °C 22.0 °F /  -5.6 °C 30.45in /  1031hPa Calm   2.0mph /  3.2km/h 27% 0.00in /  0mm 0.00 W/m2
20:32 55.2 °F /  12.9 °C 21.8 °F /  -5.7 °C 30.45in /  1031hPa Calm   2.0mph /  3.2km/h 27% 0.00in /  0mm 0.00 W/m2
20:42 55.0 °F /  12.8 °C 23.4 °F /  -4.8 °C 30.45in /  1031hPa Calm   4.0mph /  6.4km/h 29% 0.00in /  0mm 0.00 W/m2
20:47 54.8 °F /  12.7 °C 22.3 °F /  -5.4 °C 30.45in /  1031hPa Calm   5.0mph /  8km/h 28% 0.00in /  0mm 0.00 W/m2
20:52 54.6 °F /  12.6 °C 23.0 °F /  -5 °C 30.45in /  1031hPa Calm   2.0mph /  3.2km/h 29% 0.00in /  0mm 0.00 W/m2
20:57 54.5 °F /  12.5 °C 22.9 °F /  -5.1 °C 30.45in /  1031hPa East 1.0mph /  1.6km/h 2.0mph /  3.2km/h 29% 0.00in /  0mm 0.00 W/m2
21:07 54.3 °F /  12.4 °C 22.7 °F /  -5.2 °C 30.45in /  1031hPa Calm   6.0mph /  9.7km/h 29% 0.00in /  0mm 0.00 W/m2
21:22 53.9 °F /  12.2 °C 24.0 °F /  -4.4 °C 30.45in /  1031hPa Calm   2.0mph /  3.2km/h 31% 0.00in /  0mm 0.00 W/m2
21:27 53.6 °F /  12 °C 19.6 °F /  -6.9 °C 30.45in /  1031hPa Calm   1.0mph /  1.6km/h 26% 0.00in /  0mm 0.00 W/m2
21:32 53.5 °F /  11.9 °C 19.5 °F /  -6.9 °C 30.45in /  1031hPa Calm   5.0mph /  8km/h 26% 0.00in /  0mm 0.00 W/m2
21:38 53.4 °F /  11.9 °C 19.4 °F /  -7 °C 30.45in /  1031hPa Calm   1.0mph /  1.6km/h 26% 0.00in /  0mm 0.00 W/m2
21:43 53.4 °F /  11.9 °C 21.1 °F /  -6.1 °C 30.46in /  1031.4hPa Calm     28% 0.00in /  0mm 0.00 W/m2
21:48 53.3 °F /  11.8 °C 20.2 °F /  -6.6 °C 30.46in /  1031.4hPa Calm   5.0mph /  8km/h 27% 0.00in /  0mm 0.00 W/m2
21:58 53.2 °F /  11.8 °C 21.0 °F /  -6.1 °C 30.46in /  1031.4hPa East 2.0mph /  3.2km/h 4.0mph /  6.4km/h 28% 0.00in /  0mm 0.00 W/m2
22:03 53.1 °F /  11.7 °C 19.1 °F /  -7.2 °C 30.46in /  1031.4hPa Calm     26% 0.00in /  0mm 0.00 W/m2
22:08 53.0 °F /  11.7 °C 16.2 °F /  -8.8 °C 30.47in /  1031.7hPa Calm     23% 0.00in /  0mm 0.00 W/m2
22:13 53.1 °F /  11.7 °C 20.0 °F /  -6.7 °C 30.47in /  1031.7hPa Calm   1.0mph /  1.6km/h 27% 0.00in /  0mm 0.00 W/m2
22:28 53.2 °F /  11.8 °C 22.6 °F /  -5.2 °C 30.47in /  1031.7hPa Calm   2.0mph /  3.2km/h 30% 0.00in /  0mm 0.00 W/m2
22:33 53.1 °F /  11.7 °C 21.7 °F /  -5.7 °C 30.48in /  1032.1hPa Calm     29% 0.00in /  0mm 0.00 W/m2
22:38 53.0 °F /  11.7 °C 21.6 °F /  -5.8 °C 30.47in /  1031.7hPa Calm   2.0mph /  3.2km/h 29% 0.00in /  0mm 0.00 W/m2
22:48 52.5 °F /  11.4 °C 25.0 °F /  -3.9 °C 30.48in /  1032.1hPa Calm   7.0mph /  11.3km/h 34% 0.00in /  0mm 0.00 W/m2
22:53 52.2 °F /  11.2 °C 24.0 °F /  -4.4 °C 30.47in /  1031.7hPa East 2.0mph /  3.2km/h 6.0mph /  9.7km/h 33% 0.00in /  0mm 0.00 W/m2
22:58 51.8 °F /  11 °C 24.3 °F /  -4.3 °C 30.48in /  1032.1hPa East 1.0mph /  1.6km/h 5.0mph /  8km/h 34% 0.00in /  0mm 0.00 W/m2
23:08 51.4 °F /  10.8 °C 24.0 °F /  -4.4 °C 30.48in /  1032.1hPa ESE 1.0mph /  1.6km/h 5.0mph /  8km/h 34% 0.00in /  0mm 0.00 W/m2
23:13 51.3 °F /  10.7 °C 21.7 °F /  -5.7 °C 30.48in /  1032.1hPa Calm   4.0mph /  6.4km/h 31% 0.00in /  0mm 0.00 W/m2
23:23 51.2 °F /  10.7 °C 22.4 °F /  -5.3 °C 30.48in /  1032.1hPa Calm   7.0mph /  11.3km/h 32% 0.00in /  0mm 0.00 W/m2
23:43 52.0 °F /  11.1 °C 19.9 °F /  -6.7 °C 30.48in /  1032.1hPa Calm     28% 0.00in /  0mm 0.00 W/m2
23:48 52.2 °F /  11.2 °C 17.5 °F /  -8.1 °C 30.48in /  1032.1hPa Calm     25% 0.00in /  0mm 0.00 W/m2
23:58 52.4 °F /  11.3 °C 17.6 °F /  -8 °C 30.48in /  1032.1hPa ENE 2.0mph /  3.2km/h 3.0mph /  4.8km/h 25% 0.00in /  0mm 0.00 W/m2
Foresthill Weather
 WU-history PHP script courtesy of   Juneau County Weather.
powered by Cumulus v1.9.3 (1059)
Ambient Weather VWS v14.00
Top Contact Website Map Copyright © 2007 - 2018 Foresthillweather.com Never base important decisions on this or any weather information obtained from the Internet